STARLINK-34885, 65328

Orbit data source: Space-Track

STARLINK-34885, 65328 is a payload satellite owned by SpaceX/Seattle (US) in LEO that was launched on Wed, 27 Aug 2025 UTC via an FALCON 9 launch vehicle from the Air Force Eastern Test Range (AFETR). Payload-class satellites include a variety of spacecraft equipped with specific instruments for various scientific and technological missions. These include communications satellites like Starlink; space stations such as the ISS; scientific satellites like the Hubble; Earth observation satellites from companies like Planet Labs, Umbra, and HawkEye 360; GPS; miniature CubeSats for education and research; and military/defense satellites.

Loading next visibility...
Identifier
65328, 2025-189F
Orbit
LEO
Country
Flag of USUS
Related business
Manufacturer
SpaceX/Seattle
Mission
Operational Commercial Communications
Bus & Motor
STARLINK V2MO, Unknown motor
Mass
575 kg wet, ~530 kg dry
Launch date (UTC)
2025-08-27 (10 months ago)
Launch vehicle
FALCON 9
Launch site
Air Force Eastern Test Range (AFETR)
Object type
Payload
Rocket body
Debris
Shape & HBR
Box + 2 Pan, 17.7 m
Radar Cross Section
36.964 m², Large (>1 m²)

Expand to show TLE details & history
Last TLE update: 16 hours ago

TLE from 16 hours ago
0 STARLINK-34885
1 65328U 25189F   26171.16407654  .00013656  00000-0  45067-3 0  9995
2 65328  53.1593  90.2270 0001425  95.8846 264.2318 15.31725288 46743
Epoch: 2026-06-20T03:56Z
TLE epoch observation values (Epoch: 2026-06-20T03:56:16.213Z)
Latitude
0.00001°
Longitude
122.77682°
Altitude
471.663 km
Speed
7.631 km/s
True Right ascension
06h 00m 54s
True Declination
0° 00' 00"
Sunlit
Object was in daylight at epoch
Visualization orbit readout
Latitude
Unknown
Longitude
Unknown
Altitude
Unknown
Speed
Unknown
Apparent Right ascension
Unknown
Apparent Declination
Unknown
Sunlit
N/A
Visualization observer readout
Local Sidereal Time
07:17:51
Azimuth
Unknown
Elevation
Unknown
Doppler factor
Unknown
Orbital elements
Apogee altitude
471.897 km
Perigee altitude
469.945 km
Semi-major axis
6,849.058 km
Eccentricity
0.00014
Inclination
53.1593°
RAAN
90.227°
Arg. of periapsis
95.8846°
True anomaly
264.21555°
Mean anomaly
264.2318°
Eccentric anomaly
264.22368°
Mean motion
3.8291 °/min
Orbital period
94.02 mins
BSTAR
0.00045067
Loading maneuver chart data...
Computing Atmospheric mass density...
Loading historical data...
Loading historical data...
Loading historical data...
Loading historical data...
Loading historical data...
Loading historical data...
Loading historical data...

Documentation

Showing up to 5 results
|